FW4441 Weather Reports


time (UTC)temp
C
wind
direction
speed
KPH
gust
KPH
rain 1hr
cm
rain 24hr
cm
rain mn
cm
humidity
%
barometer
mb
20260509190030 22 308 6.4 14.5 0.00 0.00 0.00 51 1017.5
20260509183031 21 297 4.8 11.3 0.00 0.00 0.00 52 1018.0
20260509181531 21 310 4.8 9.7 0.00 0.00 0.00 53 1018.1
20260509180029 20 260 3.2 9.7 0.00 0.00 0.00 53 1018.1
20260509174530 20 314 3.2 9.7 0.00 0.00 0.00 54 1018.2
20260509173030 18 294 3.2 8.0 0.00 0.00 0.00 56 1018.4
20260509170032 18 332 3.2 8.0 0.00 0.00 0.00 60 1018.9
20260509164532 17 312 1.6 4.8 0.00 0.00 0.00 61 1018.9
20260509163031 16 309 1.6 6.4 0.00 0.00 0.00 64 1019.1
20260509161531 15 329 3.2 8.0 0.00 0.00 0.00 66 1019.2
20260509154530 13 34 6.4 9.7 0.00 0.00 0.00 72 1019.5
20260509153031 12 342 3.2 9.7 0.00 0.00 0.00 75 1019.4
20260509151532 12 320 4.8 8.0 0.00 0.00 0.00 77 1019.3
20260509150030 11 30 1.6 6.4 0.00 0.00 0.00 81 1019.3
20260509143028 8 149 0.0 3.2 0.00 0.00 0.00 85 1019.3
20260509140030 6 189 3.2 6.4 0.00 0.00 0.00 89 1019.1
20260509131554 6 318 0.0 3.2 0.00 0.00 0.00 87 1019.0
20260509130032 7 302 1.6 6.4 0.00 0.00 0.00 86 1018.7
20260509124530 7 173 1.6 4.8 0.00 0.00 0.00 86 1018.7
20260509123030 7 143 0.0 4.8 0.00 0.00 0.00 86 1018.6
20260509121531 7 180 0.0 4.8 0.00 0.00 0.00 85 1018.7
20260509120040 7 145 0.0 3.2 0.00 0.00 0.00 85 1018.6
20260509113029 7 161 1.6 4.8 0.00 0.00 0.00 83 1018.6
20260509111535 8 200 3.2 6.4 0.00 0.00 0.00 81 1018.5
20260509104530 10 36 3.2 9.7 0.00 0.00 0.00 78 1018.6
20260509103032 10 34 4.8 8.0 0.00 0.00 0.00 78 1018.7
20260509101529 10 36 4.8 8.0 0.00 0.00 0.00 78 1018.7
20260509100108 10 39 4.8 8.0 0.00 0.00 0.00 77 1018.7
20260509094529 10 32 6.4 9.7 0.00 0.00 0.00 77 1018.7
20260509093029 10 37 4.8 8.0 0.00 0.00 0.00 76 1018.8
20260509091531 10 20 4.8 6.4 0.00 0.00 0.00 76 1018.9
20260509090028 10 48 3.2 8.0 0.00 0.00 0.00 76 1019.0
20260509084530 10 336 1.6 6.4 0.00 0.00 0.00 77 1019.1
20260509083033 10 289 1.6 8.0 0.00 0.00 0.00 76 1019.2
20260509081531 10 246 4.8 11.3 0.00 0.00 0.00 74 1019.3
20260509080107 11 207 3.2 6.4 0.00 0.00 0.00 74 1019.5
20260509073031 11 185 6.4 14.5 0.00 0.00 0.00 73 1019.5
20260509071531 11 193 6.4 14.5 0.00 0.00 0.00 72 1019.5
20260509070032 11 211 6.4 12.9 0.00 0.00 0.00 70 1019.6
20260509064530 12 240 4.8 11.3 0.00 0.00 0.00 68 1019.7
20260509063031 12 299 0.0 8.0 0.00 0.00 0.00 68 1019.9
20260509061538 12 284 3.2 9.7 0.00 0.00 0.00 68 1019.8
20260509060032 12 290 1.6 4.8 0.00 0.00 0.00 67 1019.8
20260509054529 12 306 1.6 8.0 0.00 0.00 0.00 65 1019.7
20260509053031 13 191 4.8 16.1 0.00 0.00 0.00 64 1019.7
20260509043030 12 146 6.4 11.3 0.00 0.00 0.00 64 1019.3
20260509041646 13 123 1.6 9.7 0.00 0.00 0.00 63 1019.1
20260509040029 13 177 3.2 6.4 0.00 0.00 0.00 63 1018.9
20260509034530 13 223 6.4 9.7 0.00 0.00 0.00 61 1018.6
20260509033031 14 218 8.0 14.5 0.00 0.00 0.00 59 1018.4
20260509031531 15 230 11.3 20.9 0.00 0.00 0.00 56 1018.2
20260509030030 16 225 12.9 25.7 0.00 0.00 0.00 54 1018.0
20260509024529 16 214 16.1 29.0 0.00 0.00 0.00 54 1017.9
20260509023032 16 214 16.1 25.7 0.00 0.00 0.00 52 1017.8
20260509021616 17 214 16.1 25.7 0.00 0.00 0.00 51 1017.7
20260509020108 17 215 16.1 32.2 0.00 0.00 0.00 49 1017.6
20260509014605 18 218 19.3 32.2 0.00 0.00 0.00 48 1017.4
20260509013030 18 237 17.7 37.0 0.00 0.00 0.00 46 1017.4
20260509010029 20 256 14.5 35.4 0.00 0.00 0.00 43 1017.2
20260509004530 20 256 16.1 27.4 0.00 0.00 0.00 42 1017.1
20260509001531 21 259 17.7 33.8 0.00 0.00 0.00 39 1016.8
20260509000041 21 253 16.1 35.4 0.00 0.00 0.00 39 1016.7
20260508234530 21 254 17.7 35.4 0.00 0.00 0.00 39 1016.7
20260508233031 20 250 17.7 38.6 0.00 0.00 0.00 39 1016.6
20260508231532 21 250 20.9 38.6 0.00 0.00 0.00 40 1016.6
20260508230029 20 254 19.3 35.4 0.00 0.00 0.00 42 1016.7
20260508224532 20 255 20.9 37.0 0.00 0.00 0.00 42 1016.8
20260508223107 20 252 24.1 40.2 0.00 0.00 0.00 43 1016.7
20260508221605 20 252 24.1 45.1 0.00 0.00 0.00 44 1016.7
20260508214530 20 256 19.3 33.8 0.00 0.00 0.00 45 1016.8
20260508213032 19 254 20.9 40.2 0.00 0.00 0.00 46 1016.9
20260508211529 18 256 24.1 45.1 0.00 0.00 0.00 47 1016.8
20260508210031 19 253 24.1 51.5 0.00 0.00 0.00 47 1016.8
20260508204530 19 253 22.5 53.1 0.00 0.00 0.00 47 1016.9
20260508201530 18 265 22.5 41.8 0.00 0.00 0.00 48 1016.7
20260508200054 19 268 19.3 38.6 0.00 0.00 0.00 49 1016.8
20260508194532 19 247 16.1 33.8 0.00 0.00 0.00 49 1016.8
20260508193031 18 251 14.5 35.4 0.00 0.00 0.00 51 1017.0
20260508191530 17 266 16.1 35.4 0.00 0.00 0.00 53 1017.0